Change the Weather History Date:

Saturday, April 12, 2014

  Actual Average Record
Temperature  
Mean Temperature 52 °F -  
Max Temperature 72 °F 59 °F 83 °F (1977)
Min Temperature 32 °F 31 °F 16 °F (1976)
Degree Days  
Heating Degree Days 13    
Growing Degree Days 2 (Base 50)    
Moisture  
Dew Point 36 °F    
Average Humidity 80    
Maximum Humidity 100    
Minimum Humidity 21    
Precipitation  
Precipitation 0.00 in - - ()
Sea Level Pressure  
Sea Level Pressure 30.15 in    
Wind  
Wind Speed 1 mph (SSE)    
Max Wind Speed 10 mph    
Max Gust Speed 17 mph    
Visibility 4 miles    
Events Fog    
Averages and records for this station are not official NWS values.
T = Trace of Precipitation, MM = Missing Value Source: NWS Daily Summary

Daily Weather History Graph

Daily Weather History Graph

Search for Another Location

Airport or City:

Trip Planner

Search our weather history database for the weather conditions in past years. The results will help you decide how hot, cold, wet, or windy it might be!

Date:

Astronomy

Apr. 12, 2014 Rise Set
Actual Time 6:47 AM EDT 7:58 PM EDT
Civil Twilight 6:18 AM EDT 8:26 PM EDT
Nautical Twilight 5:45 AM EDT 9:00 PM EDT
Astronomical Twilight 5:09 AM EDT 9:36 PM EDT
Moon 5:34 PM EDT (4/12) 5:14 AM EDT (4/12)
Length of Visible Light 14h 07m
Length of Day
13h 11m
Waxing Gibbous, 93% of the Moon is Illuminated
Apr 12
Waxing Gibbous
Apr 15
Full
Apr 22
Last Quarter
Apr 29
New
May 6
First Quarter

Hourly Weather History & Observations

Time (EDT) Temp. Dew Point Humidity Pressure Visibility Wind Dir Wind Speed Gust Speed Precip Events Conditions
12:13 AM 37.4 °F 37.4 °F 100% 30.11 in 0.2 mi Calm Calm - N/A Fog Fog
12:24 AM 35.6 °F 35.6 °F 100% 30.11 in 0.2 mi Calm Calm - N/A Fog Fog
12:37 AM 35.6 °F 35.6 °F 100% 30.11 in 0.5 mi Calm Calm - N/A Fog Fog
12:44 AM 35.6 °F 35.6 °F 100% 30.11 in 1.0 mi Calm Calm - N/A   Clear
12:49 AM 35.6 °F 35.6 °F 100% 30.11 in 0.5 mi Calm Calm - N/A Fog Fog
12:56 AM 36.0 °F 36.0 °F 100% 30.18 in 0.2 mi Calm Calm - N/A Fog Fog
1:24 AM 35.6 °F 35.6 °F 100% 30.11 in 0.8 mi Calm Calm - N/A   Clear
1:28 AM 35.6 °F 35.6 °F 100% 30.11 in 0.2 mi Calm Calm - N/A Fog Fog
1:37 AM 35.6 °F 35.6 °F 100% 30.11 in 0.2 mi Calm Calm - N/A Fog Fog
1:56 AM 34.9 °F 34.9 °F 100% 30.18 in 0.2 mi Calm Calm - N/A Fog Fog
2:28 AM 35.6 °F 35.6 °F 100% 30.11 in 0.2 mi Calm Calm - N/A Fog Fog
2:56 AM 34.0 °F 34.0 °F 100% 30.18 in 0.2 mi Calm Calm - N/A Fog Fog
3:08 AM 33.8 °F 33.8 °F 100% 30.12 in 0.2 mi Calm Calm - N/A Fog Fog
3:25 AM 33.8 °F 33.8 °F 100% 30.13 in 0.2 mi Calm Calm - N/A Fog Fog
3:37 AM 33.8 °F 33.8 °F 100% 30.13 in 0.2 mi Calm Calm - N/A Fog Fog
3:56 AM 34.9 °F 34.9 °F 100% 30.20 in 0.5 mi Calm Calm - N/A Fog Fog
4:08 AM 35.6 °F 35.6 °F 100% 30.14 in 0.2 mi Calm Calm - N/A Fog Fog
4:37 AM 33.8 °F 33.8 °F 100% 30.15 in 0.2 mi Calm Calm - N/A Fog Fog
4:56 AM 36.0 °F 36.0 °F 100% 30.23 in 0.5 mi Calm Calm - N/A Fog Fog
5:04 AM 37.4 °F 37.4 °F 100% 30.16 in 1.0 mi Calm Calm - N/A   Clear
5:11 AM 35.6 °F 35.6 °F 100% 30.16 in 0.5 mi Calm Calm - N/A Fog Fog
5:26 AM 33.8 °F 33.8 °F 100% 30.16 in 0.2 mi Calm Calm - N/A Fog Fog
5:56 AM 32.9 °F 32.9 °F 100% 30.24 in 0.2 mi Calm Calm - N/A Fog Fog
6:35 AM 33.8 °F 33.8 °F 100% 30.18 in 0.2 mi Calm Calm - N/A Fog Fog
6:56 AM 32.9 °F 32.9 °F 100% 30.25 in 0.2 mi Calm Calm - N/A Fog Fog
7:39 AM 35.6 °F 35.6 °F 100% 30.19 in 0.2 mi Calm Calm - N/A Fog Fog
7:48 AM 35.6 °F 35.6 °F 100% 30.19 in 0.5 mi Calm Calm - N/A Fog Fog
7:56 AM 37.4 °F 37.4 °F 100% 30.19 in 0.2 mi Calm Calm - N/A Fog Fog
8:38 AM 41.0 °F 41.0 °F 100% 30.20 in 0.8 mi Calm Calm - N/A   Mist
8:40 AM 41.0 °F 41.0 °F 100% 30.19 in 1.5 mi Calm Calm - N/A   Mostly Cloudy
8:42 AM 42.8 °F 42.8 °F 100% 30.20 in 3.0 mi Calm Calm - N/A   Partly Cloudy
8:56 AM 41.9 °F 41.9 °F 100% 30.26 in 7.0 mi Calm Calm - N/A   Clear
9:56 AM 47.8 °F 47.8 °F 100% 30.27 in 10.0 mi Calm Calm - N/A   Clear
10:56 AM 55.4 °F 46.4 °F 72% 30.21 in 10.0 mi SSE 5.8 mph - N/A   Clear
11:56 AM 61.0 °F 45.0 °F 56% 30.25 in 10.0 mi Calm Calm - N/A   Clear
12:56 PM 64.9 °F 41.9 °F 43% 30.21 in 10.0 mi SE 6.9 mph - N/A   Clear
1:56 PM 69.8 °F 39.2 °F 33% 30.12 in 10.0 mi Variable 5.8 mph - N/A   Clear
2:56 PM 70.9 °F 32.9 °F 25% 30.16 in 10.0 mi South 10.4 mph - N/A   Clear
3:56 PM 72.0 °F 32.0 °F 23% 30.13 in 10.0 mi South 10.4 mph 17.3 mph N/A   Partly Cloudy
4:56 PM 71.6 °F 32.0 °F 23% 30.06 in 10.0 mi SSE 8.1 mph - N/A   Clear
5:56 PM 72.0 °F 30.0 °F 21% 30.09 in 10.0 mi Variable 3.5 mph - N/A   Clear
6:56 PM 70.9 °F 30.0 °F 22% 30.07 in 10.0 mi SSE 3.5 mph - N/A   Clear
7:56 PM 68.0 °F 30.2 °F 24% 30.00 in 10.0 mi Calm Calm - N/A   Clear
8:56 PM 63.9 °F 31.1 °F 29% 30.05 in 10.0 mi Calm Calm - N/A   Clear
9:56 PM 61.9 °F 32.0 °F 33% 30.03 in 10.0 mi Calm Calm - N/A   Clear
10:56 PM 61.9 °F 32.9 °F 34% 30.01 in 10.0 mi Calm Calm - N/A   Partly Cloudy
11:56 PM 61.9 °F 32.9 °F 34% 29.99 in 10.0 mi Calm Calm - N/A   Clear